Theta_e
352 351 351 352 353 354 356 356 352 350 348 345 347 350 348 345 345 345 345 346 345 344 344 344 345 345 344 346 346 349 350 350 351 350 349 349 348 347 348 350 350 350 351 351 351 350 351 352 351 350 351 352 351 351 350 348 347 348 350 349 348 349 351
351 350 351 352 352 354 357 356 351 348 346 345 348 350 348 345 346 345 345 345 345 345 345 345 345 346 345 345 345 347 349 350 350 350 349 348 347 347 347 347 348 349 351 352 351 351 352 352 352 351 351 352 352 352 352 351 350 350 352 351 351 352 351
350 350 352 353 352 354 357 358 354 348 346 346 346 348 349 347 346 346 346 346 346 345 345 345 345 346 346 346 346 345 348 349 349 349 349 348 347 347 347 347 347 348 350 353 353 353 353 353 353 353 352 351 351 352 352 352 352 352 351 351 351 351 348
350 350 351 353 354 355 356 359 357 351 347 345 342 342 345 346 343 343 343 345 345 346 346 345 345 347 346 346 346 345 347 350 349 349 349 348 348 347 347 347 348 348 349 352 352 351 350 350 352 352 352 351 352 351 352 352 352 352 352 352 352 351 348
351 350 352 355 355 356 358 359 358 354 348 346 343 339 341 342 341 341 341 341 342 346 347 346 346 347 346 346 346 346 349 350 349 349 349 349 349 349 349 348 348 348 349 350 350 349 348 348 348 348 351 353 353 352 352 352 352 352 352 352 352 351 350
352 351 352 356 357 356 357 358 357 356 351 347 344 343 342 343 344 345 344 343 341 344 347 349 348 348 347 347 348 348 348 349 349 350 351 351 350 350 349 349 349 349 349 349 349 349 348 347 346 346 349 352 353 352 352 352 352 352 352 352 352 352 352
352 353 353 356 357 357 357 357 356 356 353 350 348 346 345 346 347 348 348 349 346 344 347 349 349 349 350 349 349 349 349 349 350 351 351 350 350 350 350 350 349 349 349 349 349 349 348 347 347 346 347 351 353 352 351 352 353 351 351 352 352 353 353
354 354 354 355 356 356 356 356 355 355 356 354 352 351 349 348 350 351 351 352 351 349 350 351 350 350 351 350 349 351 351 351 351 351 350 350 350 350 350 349 348 348 348 348 348 349 347 346 346 346 349 352 353 352 352 352 352 351 350 351 351 352 353
354 354 354 354 354 354 355 355 355 354 355 355 355 355 352 349 349 350 351 353 353 352 353 354 353 352 351 350 351 353 352 351 351 351 350 351 350 350 349 348 348 348 348 347 347 348 347 346 348 349 351 353 353 352 352 353 352 351 350 350 351 352 352
355 355 355 355 353 355 355 354 353 353 355 354 355 354 351 347 346 346 350 352 352 352 352 354 355 352 350 350 352 352 351 351 351 350 350 351 349 349 349 349 349 348 347 347 346 347 346 347 350 351 352 353 353 353 353 353 353 352 351 349 350 351 352
358 357 357 357 357 356 354 351 349 350 350 350 350 350 349 348 346 347 350 351 352 353 352 354 355 352 348 350 352 352 351 351 350 350 350 351 350 349 349 349 349 348 347 346 347 346 346 348 351 351 351 353 353 353 353 353 353 353 353 351 350 351 351
359 359 359 359 358 355 351 346 345 346 346 347 349 349 348 350 350 350 352 352 354 356 353 353 353 351 348 350 352 352 351 351 350 351 351 350 350 350 349 349 349 347 348 348 347 347 347 351 353 351 351 353 353 353 354 354 354 354 353 352 351 352 352
360 360 359 358 356 352 349 346 347 348 348 350 351 350 349 350 350 351 351 352 354 355 353 353 353 351 349 350 352 352 351 351 351 350 350 350 351 350 349 349 348 348 349 350 349 349 349 350 351 351 352 354 353 354 354 354 355 354 352 352 353 353 353
360 361 360 357 354 352 352 352 353 353 351 351 352 351 352 352 351 352 352 352 353 353 353 354 354 352 351 351 352 352 351 350 350 349 350 350 351 350 350 350 350 348 349 349 350 350 349 349 350 352 353 353 353 353 355 354 354 353 352 352 353 353 354
359 361 360 358 356 355 355 354 353 352 350 351 351 352 352 352 352 354 354 354 354 353 353 354 353 352 351 352 352 352 351 350 351 351 351 351 350 350 350 351 351 349 348 349 349 349 349 349 351 352 353 353 352 353 353 353 353 353 352 353 353 353 353
358 359 358 358 359 358 357 354 350 350 350 350 350 350 351 353 355 355 355 356 355 354 354 353 352 352 352 352 352 351 351 351 351 351 351 351 351 350 350 350 351 350 349 349 349 349 350 350 350 351 352 352 352 353 353 353 352 352 351 351 351 350 351
357 358 357 359 360 358 356 354 350 350 350 349 349 350 351 355 357 355 354 354 353 354 354 353 353 353 352 352 350 348 349 350 350 351 351 351 351 350 349 350 349 349 349 349 349 349 350 349 349 350 352 352 353 353 353 352 352 351 350 350 350 350 350
357 357 357 360 360 358 355 353 350 350 349 348 348 348 349 354 357 356 354 353 353 354 354 354 354 353 352 351 349 348 348 348 348 350 350 350 350 349 349 349 349 350 349 350 351 350 350 350 350 351 352 352 352 352 353 352 351 351 351 350 350 349 349
358 357 359 360 357 353 351 350 349 348 349 347 345 345 348 353 357 356 353 353 355 355 354 354 353 352 351 350 348 348 347 346 347 348 349 349 349 348 349 350 349 350 349 349 349 349 349 349 350 350 350 351 351 351 352 352 351 351 350 349 349 349 349
357 357 359 358 354 350 349 350 350 349 348 346 344 346 351 354 355 354 352 352 354 355 354 353 352 351 350 348 347 347 346 345 347 347 347 347 347 347 348 348 348 348 347 347 346 346 346 346 345 346 347 348 349 350 350 351 350 350 349 348 347 348 347
359 358 358 357 354 351 349 347 348 349 348 346 345 348 353 355 355 354 353 353 354 354 353 352 351 350 349 347 346 345 345 345 346 346 346 346 346 346 346 345 346 345 344 343 343 343 342 342 341 342 342 343 345 346 348 348 348 348 347 346 346 346 346
359 359 359 357 352 349 347 346 347 348 347 346 346 347 351 353 354 354 354 353 353 353 352 350 350 349 347 346 346 345 345 346 346 346 346 345 344 344 344 344 343 342 342 342 341 340 340 339 339 339 339 340 340 342 343 343 343 343 341 340 340 341 343
355 358 359 358 352 348 345 347 347 346 344 345 346 345 346 349 351 352 353 352 350 350 349 348 347 347 346 345 345 345 345 345 345 345 346 344 344 344 344 342 341 340 340 340 340 340 339 338 338 338 338 339 338 339 340 340 339 338 337 336 336 338 340
351 354 356 358 358 351 347 349 349 345 343 345 346 345 342 340 342 344 346 349 350 349 349 348 347 346 346 345 344 344 344 344 344 346 346 345 344 343 342 341 340 340 339 339 339 339 339 339 338 338 338 339 338 338 339 339 338 336 335 334 334 335 337
351 351 353 356 358 354 349 349 348 344 344 344 343 343 340 336 336 336 338 342 346 347 347 347 347 345 344 343 343 343 343 343 344 345 344 344 343 341 340 340 340 339 338 338 338 338 338 337 337 338 338 339 338 338 337 337 336 334 332 331 331 332 333
350 352 352 353 356 355 351 347 344 345 347 346 341 341 340 338 339 338 334 333 336 339 340 341 343 343 343 343 343 342 343 343 343 343 342 342 341 341 340 340 340 339 339 338 338 337 337 337 337 337 337 337 336 336 335 335 335 333 330 329 329 330 330
350 351 353 353 354 356 355 350 347 349 351 347 343 344 344 341 342 340 334 329 329 331 333 337 342 345 344 343 342 342 343 343 342 342 341 341 341 340 339 339 339 339 338 337 337 337 337 337 336 336 336 335 334 334 334 335 335 333 332 330 329 330 330
350 351 352 354 355 355 356 354 353 352 352 348 345 346 346 343 341 338 332 327 326 329 332 337 342 342 339 339 340 342 343 341 342 341 341 340 340 338 338 337 336 336 337 336 336 336 336 336 336 335 334 334 333 332 333 334 333 332 331 331 331 332 332
349 350 351 353 353 353 355 356 355 353 353 352 349 347 348 346 343 339 332 325 324 329 333 335 335 333 332 335 340 342 342 341 341 341 340 340 339 338 337 336 333 332 334 335 335 335 335 335 336 334 334 334 334 333 333 333 332 330 330 331 332 333 332
345 347 348 351 352 353 353 354 355 353 352 353 353 349 347 348 347 341 335 328 326 329 332 331 332 332 334 338 340 341 341 341 341 340 339 339 337 336 336 334 331 332 334 334 335 335 335 335 335 334 334 334 334 334 333 333 332 332 331 332 333 333 333
341 344 345 346 349 352 352 352 354 354 353 353 353 349 345 348 348 344 340 335 330 329 330 331 334 337 340 342 342 342 341 340 339 339 339 338 336 333 333 332 332 334 335 335 336 335 335 335 335 334 334 335 334 334 334 333 332 333 333 332 333 334 334
336 339 343 343 343 348 352 352 351 352 353 354 353 349 346 347 348 346 345 342 336 332 333 334 336 339 343 345 343 341 340 339 339 339 339 337 335 332 330 331 333 334 335 335 336 336 335 335 334 334 335 335 334 333 333 333 332 332 333 333 334 334 334
332 332 337 340 340 341 345 351 353 352 351 352 353 352 349 347 348 350 349 346 343 339 336 336 337 339 341 343 342 341 340 339 338 338 338 337 334 332 331 332 334 335 335 334 335 335 334 334 334 334 334 335 334 333 333 333 332 332 333 333 333 332 332
331 329 331 334 337 338 337 340 346 352 352 352 352 352 352 351 350 352 352 350 348 345 340 338 338 338 341 343 342 341 339 339 338 338 337 336 334 333 333 333 333 334 335 334 334 334 334 334 334 334 334 334 333 333 333 333 332 332 333 333 332 331 330
328 329 329 329 332 337 337 333 335 342 349 352 352 351 352 352 351 351 352 352 350 348 344 340 338 339 343 344 343 340 338 337 337 337 338 337 334 332 332 332 332 333 334 333 332 332 333 334 334 333 333 333 333 333 333 333 332 332 332 332 330 329 329
328 329 330 328 329 334 337 335 331 333 340 347 351 351 351 352 352 351 350 350 350 349 346 343 341 341 344 345 343 341 338 336 337 337 337 337 334 331 329 329 330 330 331 330 329 329 330 331 331 331 331 332 333 332 333 333 332 331 330 329 328 326 326
329 329 331 331 330 331 335 335 334 333 334 339 346 350 352 352 351 350 350 350 349 348 346 345 343 341 341 341 342 342 340 338 338 338 335 334 333 330 329 330 329 328 329 328 327 327 328 328 329 329 329 330 331 330 330 331 331 329 327 326 325 325 325
330 330 329 330 331 331 332 333 335 334 333 333 338 345 350 351 350 349 350 351 350 349 348 346 344 340 337 337 339 340 339 339 339 336 332 331 330 328 327 328 328 328 327 327 327 327 327 327 328 328 328 329 330 329 330 330 328 326 325 324 324 325 325
Wind_Speed
20 20 20 20 20 21 20 21 21 22 24 24 23 22 24 26 27 26 24 23 24 24 23 21 22 24 23 22 22 22 22 23 22 21 19 17 17 17 17 15 14 13 11 11 10 10 11 11 12 12 12 13 13 13 15 17 17 16 15 16 17 15 15
19 20 20 20 20 21 21 22 23 25 26 24 22 21 22 24 25 25 23 23 24 24 23 23 22 23 23 22 21 22 22 22 22 21 19 18 18 18 18 18 17 15 14 13 11 11 11 11 12 12 13 13 13 13 14 15 16 16 15 16 16 15 16
19 20 21 22 22 22 22 22 24 28 28 26 22 20 22 24 24 23 22 22 23 24 24 24 23 22 22 21 20 20 20 20 20 21 20 18 18 19 19 18 18 17 16 14 13 13 11 11 11 13 14 14 13 13 14 14 15 15 15 17 16 16 18
18 19 20 22 22 22 22 23 25 28 30 28 24 20 20 22 21 20 20 20 21 23 25 25 25 23 21 21 20 20 19 19 19 20 20 18 17 18 19 19 18 18 18 17 16 17 16 14 13 13 14 15 14 14 14 14 15 14 15 16 16 17 18
16 18 19 20 21 22 22 23 24 27 30 31 27 22 19 18 17 16 17 19 20 21 23 24 24 23 22 21 21 21 19 17 18 19 19 18 17 17 18 20 20 19 19 19 18 19 19 19 17 15 13 14 14 14 14 15 15 15 16 16 16 16 17
15 17 19 20 21 22 22 23 23 24 28 30 30 28 24 21 19 18 18 20 21 20 21 22 22 21 19 19 20 20 17 16 18 19 18 18 17 16 17 18 19 19 20 19 19 20 19 19 18 16 14 13 13 13 14 15 15 15 15 16 16 16 15
13 15 17 18 19 20 20 21 21 21 23 26 29 30 28 24 21 21 20 20 21 21 22 22 21 19 18 19 20 18 16 17 18 18 17 17 16 16 16 17 18 19 19 20 21 21 20 19 17 16 14 14 14 14 14 15 16 15 15 15 15 15 16
11 12 14 15 16 17 17 18 19 19 19 21 24 26 28 25 21 19 19 19 19 20 21 21 20 18 17 18 18 16 16 18 18 17 16 16 16 15 16 17 17 18 18 19 21 21 21 20 17 14 13 14 15 15 15 16 16 15 14 14 14 14 14
10 10 11 12 14 14 15 16 17 17 17 18 19 20 24 25 22 20 20 18 18 18 19 19 17 15 16 18 18 17 18 18 17 16 16 15 16 16 16 16 17 17 17 18 19 20 21 20 15 12 13 15 15 14 15 15 15 14 14 14 14 14 13
9 9 10 12 13 13 14 16 17 17 17 18 18 19 20 21 20 20 19 18 18 17 17 16 14 14 17 19 18 17 17 16 15 15 15 15 16 16 16 16 16 16 16 16 17 19 20 18 14 12 14 16 15 15 15 15 14 14 14 13 12 13 13
10 11 12 12 13 14 15 17 17 17 17 18 18 18 18 17 17 18 18 16 15 14 15 14 13 14 18 19 17 16 15 14 14 14 14 15 16 16 16 15 15 15 15 15 15 17 18 16 14 14 15 15 15 14 14 15 15 14 14 14 13 13 13
11 12 13 13 13 14 15 16 16 17 17 16 17 17 16 16 16 16 16 14 13 13 14 14 13 15 19 18 15 13 13 13 12 13 14 14 14 14 15 14 14 14 13 12 13 16 16 14 13 14 15 15 15 14 15 15 15 15 15 14 13 14 14
12 12 13 14 14 14 15 15 15 15 15 15 16 17 17 17 16 16 15 14 14 14 14 13 13 15 18 17 13 12 12 12 11 11 12 11 11 12 12 12 12 11 11 11 12 14 15 14 14 14 14 14 14 14 15 15 16 16 17 16 14 14 14
12 12 13 14 15 15 15 15 15 14 15 15 16 16 16 16 16 15 15 15 15 15 14 13 13 13 15 14 12 11 10 9 8 7 8 9 9 9 9 9 9 9 11 12 12 12 13 13 13 13 14 14 14 14 15 15 15 16 16 15 14 13 13
13 13 13 14 15 16 16 15 15 14 14 14 15 16 16 15 14 14 13 13 14 14 14 13 12 12 12 11 9 7 6 6 5 6 7 8 9 8 8 8 8 8 9 10 10 10 12 13 13 13 13 14 14 14 13 13 14 15 15 14 13 12 13
14 13 13 14 14 15 15 15 15 14 14 14 14 15 16 14 12 13 13 12 12 13 13 13 12 12 10 8 7 6 5 5 5 6 7 8 8 8 9 8 8 9 10 10 10 11 12 13 13 13 13 13 13 13 12 13 15 17 17 15 14 14 13
15 14 13 13 14 15 15 15 15 14 14 14 14 15 15 12 10 11 12 13 12 12 13 13 11 10 9 8 8 7 6 6 6 7 7 8 8 9 9 10 10 10 10 10 10 11 12 12 13 12 11 11 12 11 12 15 17 17 16 15 15 15 14
15 15 14 13 14 15 15 15 15 14 14 14 14 15 15 12 10 10 11 12 12 11 12 12 10 9 9 9 9 8 7 7 7 7 7 7 8 9 9 10 10 9 9 8 8 8 9 9 10 10 9 10 11 11 12 16 17 16 17 16 15 16 15
14 16 15 15 16 16 16 15 14 14 13 13 13 14 13 11 10 10 10 10 11 11 11 11 10 9 9 9 9 8 7 7 8 8 8 7 8 9 9 9 9 8 8 7 7 7 7 7 7 8 9 9 11 11 12 16 17 16 17 17 15 15 15
12 14 15 16 17 17 16 15 14 14 13 13 14 13 12 11 10 10 10 11 11 12 11 11 10 10 10 9 8 8 9 9 9 9 9 9 9 9 9 9 9 9 8 6 6 6 7 7 8 9 10 11 11 10 12 16 16 16 17 17 16 15 14
9 12 14 15 17 17 17 16 15 14 14 14 14 12 11 10 10 10 11 11 11 11 11 11 10 10 10 9 9 9 10 10 9 9 9 10 9 8 8 8 8 8 7 6 6 6 7 8 8 9 10 10 11 11 13 18 19 18 19 19 18 17 15
7 8 12 14 16 16 16 16 15 14 14 14 13 12 11 10 10 11 11 11 10 10 10 10 10 9 10 10 10 10 10 10 10 10 10 10 9 8 8 8 8 7 6 6 6 5 6 6 7 8 8 9 10 10 13 19 21 21 23 23 21 19 16
8 8 8 11 14 15 15 15 14 14 14 14 14 13 12 12 12 11 11 11 10 10 10 10 10 10 10 10 11 11 11 11 10 10 11 10 9 8 8 8 8 7 6 5 5 5 5 5 5 6 6 8 9 8 10 17 21 20 21 22 21 19 17
9 9 8 8 10 13 14 14 14 14 15 15 15 14 13 12 12 11 11 11 11 11 11 11 10 10 10 10 11 11 11 11 11 11 11 10 9 8 8 8 7 6 5 4 4 5 5 4 4 4 4 6 8 9 11 16 19 18 18 18 18 18 18
5 6 8 8 9 13 14 14 14 15 15 16 16 15 14 13 12 12 11 12 12 13 12 12 11 11 10 10 10 10 10 11 11 11 10 9 9 8 8 7 6 5 4 4 5 5 6 5 4 4 4 5 7 10 12 15 17 17 17 17 16 16 16
4 3 4 7 9 11 13 15 16 16 16 16 16 15 15 14 13 12 12 12 13 13 13 13 12 10 10 9 9 9 10 10 10 10 9 8 8 8 7 6 4 4 4 4 4 5 6 5 5 5 6 6 6 7 9 10 12 14 15 14 14 14 14
6 5 3 3 7 10 12 15 16 16 16 16 15 15 15 14 14 13 12 12 13 13 13 13 12 10 9 9 9 9 9 9 9 9 9 8 8 8 7 5 4 4 4 4 4 5 5 5 5 5 5 6 6 6 6 7 9 11 13 12 11 12 11
10 7 6 3 4 8 10 12 14 16 16 16 16 17 16 15 15 14 13 13 13 13 14 13 11 10 9 8 8 8 8 8 8 8 8 8 8 7 5 5 5 5 4 5 5 5 5 5 5 4 3 4 4 4 5 7 8 9 11 9 7 7 7
17 12 8 5 3 4 7 9 12 15 16 16 17 18 17 16 15 14 14 13 12 13 14 14 12 11 9 8 7 7 7 7 7 8 8 7 6 5 5 5 6 5 4 5 5 5 5 5 5 4 3 3 2 2 4 6 7 8 7 4 3 3 4
22 19 13 8 5 3 5 7 10 12 14 15 17 19 18 17 16 15 13 12 12 14 15 14 12 10 8 7 6 6 6 7 7 8 7 6 5 5 5 5 5 4 4 4 4 4 4 5 5 4 3 2 3 3 3 4 4 6 5 1 1 3 3
23 22 19 15 11 6 4 6 8 10 12 14 17 19 20 19 17 15 13 12 12 14 15 14 12 10 7 5 5 5 5 6 6 7 6 5 5 6 5 5 4 4 4 4 4 4 4 4 5 4 2 3 4 3 3 4 3 3 3 1 3 4 3
20 21 22 21 19 13 6 4 6 9 11 13 15 18 19 19 18 14 12 12 12 12 13 13 11 9 6 5 5 5 5 5 5 6 6 5 6 6 6 5 5 4 4 4 5 5 4 3 4 3 3 4 4 4 4 4 3 2 1 2 4 4 2
19 20 21 22 22 20 13 7 5 7 10 11 11 13 16 18 17 13 11 11 11 11 11 11 10 8 5 4 4 5 5 6 7 7 6 6 6 6 6 5 5 5 4 4 4 4 4 4 4 3 3 4 4 3 2 2 2 2 2 1 2 2 3
19 21 21 21 19 20 19 16 12 7 8 10 10 10 12 14 15 13 10 9 9 10 11 10 10 9 7 6 7 7 8 9 9 8 8 8 8 7 6 6 5 4 4 4 4 4 4 4 4 3 3 4 4 3 2 1 2 3 2 1 2 2 1
18 24 24 24 20 16 17 19 18 14 9 8 10 9 9 11 12 12 10 10 11 11 11 12 12 12 11 10 10 10 10 10 10 10 9 10 10 10 9 8 7 5 4 5 6 7 7 7 6 5 4 4 4 4 3 2 3 4 3 2 2 2 1
16 24 27 27 22 16 13 14 17 17 14 10 8 8 9 8 10 12 13 14 15 15 16 16 16 15 15 14 13 14 13 11 10 11 11 10 11 12 11 9 8 7 6 5 5 6 8 10 9 8 6 4 4 6 7 6 5 5 5 3 3 2 2
16 20 26 29 24 16 15 15 15 15 15 14 10 7 6 8 10 13 14 16 16 17 20 20 19 18 17 16 15 16 15 12 12 13 12 10 11 12 11 9 8 8 6 6 6 5 6 7 7 7 8 7 5 7 10 9 7 6 5 4 3 3 3
11 13 20 25 23 18 15 15 14 14 15 15 13 9 5 7 10 12 13 13 14 16 21 22 19 18 18 17 17 16 14 13 14 14 13 12 13 14 12 10 8 7 7 7 7 6 5 5 5 5 7 7 7 9 10 10 8 7 5 4 4 4 4
Wind_Direction
188 191 194 195 196 196 196 199 203 205 209 216 216 208 212 219 218 218 220 222 222 221 222 223 221 222 224 227 231 234 236 241 244 239 232 231 231 232 233 229 229 229 231 238 238 235 234 232 232 228 229 238 240 241 248 250 248 248 252 258 259 253 249
187 190 193 196 198 197 196 199 204 208 209 210 211 208 211 216 218 219 220 221 222 223 225 224 223 223 226 229 233 236 239 244 252 251 243 239 238 239 238 235 233 229 230 237 235 231 235 237 240 236 232 236 240 244 248 251 251 250 251 254 256 254 252
188 189 191 195 198 199 198 197 202 209 211 209 207 207 212 219 222 221 221 221 221 224 227 227 226 225 227 230 233 238 243 245 251 254 250 243 241 241 240 240 241 233 228 232 232 228 229 234 241 242 241 240 240 245 248 248 251 252 251 253 253 252 255
189 190 190 192 195 198 199 198 200 208 213 213 207 204 211 220 225 224 224 225 225 225 228 229 230 230 230 233 237 240 244 247 250 253 253 248 244 243 240 239 242 237 232 234 237 236 232 231 234 240 247 246 240 243 248 247 248 250 251 253 255 255 256
187 189 189 190 192 195 197 199 200 206 216 218 209 204 210 217 223 229 231 233 232 230 232 232 233 237 236 236 240 240 240 245 249 250 252 250 246 243 240 237 238 239 238 238 240 242 240 239 240 240 245 250 248 247 249 250 251 252 252 252 254 256 255
184 187 189 189 191 193 195 199 200 203 214 219 213 212 218 222 227 238 241 242 239 236 236 235 235 241 241 238 240 240 238 242 245 247 249 249 246 243 240 238 238 239 239 237 238 239 239 241 244 243 241 245 251 252 252 253 252 251 253 252 252 251 250
181 186 189 189 190 192 193 196 198 198 205 212 216 220 224 225 230 235 234 236 240 240 239 238 238 240 240 238 238 236 237 239 241 243 246 247 247 245 242 241 239 240 239 238 236 236 237 238 239 242 245 247 249 250 252 252 249 247 247 248 251 251 250
176 183 188 188 188 188 188 190 193 194 195 201 209 217 223 225 226 227 224 225 232 235 234 236 239 238 234 234 234 232 235 238 238 241 244 245 247 248 248 247 244 243 242 241 238 236 237 237 235 238 246 250 251 251 251 252 253 253 246 243 247 249 250
167 176 184 183 183 180 179 183 187 190 192 195 198 207 220 227 226 225 224 220 221 225 225 225 228 228 228 231 231 230 234 237 237 241 244 245 247 250 251 251 247 245 244 243 239 234 233 233 231 234 242 245 248 249 249 250 254 257 251 245 245 247 248
156 163 169 170 169 167 170 179 183 184 189 194 197 203 216 222 220 218 217 214 216 221 224 220 210 212 224 229 229 229 233 237 239 243 247 250 252 252 252 252 248 244 245 243 236 229 229 230 226 227 239 244 244 246 249 250 251 255 256 253 249 250 250
148 151 156 157 158 162 170 180 185 187 192 197 201 205 210 210 207 206 207 209 211 215 221 216 202 209 224 227 226 229 234 239 245 249 252 255 255 251 248 247 244 242 243 241 233 225 226 230 227 227 237 244 245 246 249 251 252 256 260 258 253 253 251
148 147 153 153 156 165 175 183 186 189 194 196 198 201 201 200 199 200 202 202 202 206 214 211 200 208 223 226 225 229 237 245 253 255 253 253 253 247 240 239 239 238 236 235 231 226 226 228 230 233 238 241 244 247 248 249 251 254 259 258 255 256 255
147 147 152 155 159 166 172 177 180 183 188 190 194 197 198 199 199 198 198 197 198 202 205 202 198 208 224 230 228 231 243 253 255 252 247 241 237 233 230 231 234 230 224 223 226 227 228 228 231 236 239 241 245 248 248 248 249 255 260 260 253 252 255
146 147 152 156 163 165 167 170 172 179 185 188 193 196 197 200 199 198 198 196 197 199 196 197 201 211 225 233 234 237 248 258 256 244 232 223 218 218 218 220 226 222 215 216 221 226 230 233 234 236 239 241 244 246 247 249 252 259 265 264 257 252 253
153 155 159 161 164 166 167 171 174 180 185 188 191 193 194 195 195 194 195 193 193 196 197 201 206 212 223 230 235 240 242 241 236 223 215 213 212 212 211 207 214 219 216 218 224 227 230 231 230 232 236 240 242 243 246 251 253 254 255 256 254 249 249
165 166 169 168 168 170 172 177 182 186 189 192 194 194 193 189 188 190 190 189 190 191 195 199 202 208 216 218 221 225 217 211 209 202 200 203 203 205 207 205 211 218 218 220 224 225 228 230 231 232 236 240 243 243 244 246 246 247 248 249 249 249 249
171 173 176 173 172 175 178 184 191 193 196 199 199 199 192 181 180 187 190 192 191 189 192 192 194 199 199 201 212 214 202 195 193 189 189 193 198 203 207 208 212 216 215 215 220 223 227 231 231 233 235 239 242 243 246 245 244 246 250 250 248 248 248
175 176 178 176 177 182 185 191 196 198 201 202 200 200 192 177 172 180 186 191 188 187 193 191 189 191 188 196 211 208 196 189 187 188 189 190 195 198 200 200 200 202 202 202 209 217 223 229 231 231 233 237 236 232 240 247 247 246 249 250 249 247 246
184 180 180 181 186 191 193 195 198 199 202 202 200 200 192 176 171 175 180 185 181 183 189 186 184 189 191 200 205 195 189 190 190 189 187 189 193 191 190 189 190 196 200 202 209 213 220 229 234 234 230 232 233 229 236 249 251 247 247 248 249 249 248
201 189 185 189 193 197 197 197 197 198 200 202 201 198 185 171 171 175 176 182 183 182 183 183 187 192 192 197 196 187 186 191 192 190 185 187 193 193 194 198 204 210 211 214 225 231 237 244 245 245 241 237 237 236 241 246 245 244 245 245 246 248 248
225 202 194 195 196 198 199 199 200 199 198 200 200 193 178 169 173 174 173 182 185 182 182 185 188 188 187 189 189 188 191 192 192 193 192 193 197 198 203 211 219 224 225 230 239 244 250 250 246 248 249 245 241 240 246 249 246 245 249 249 247 247 245
259 224 209 204 202 203 202 201 202 201 199 196 194 190 180 171 171 173 174 179 181 179 183 187 186 185 185 187 188 188 191 192 192 196 198 200 200 203 212 223 231 237 239 240 242 243 246 248 246 246 246 247 245 242 250 258 256 252 254 255 253 252 253
267 247 227 214 208 209 206 201 201 200 194 190 187 188 186 179 173 172 174 176 178 180 183 184 186 187 185 186 188 187 187 188 191 196 200 202 201 204 215 228 236 239 242 242 241 241 241 238 241 242 235 235 240 234 243 259 263 260 258 257 255 255 257
261 249 238 221 209 208 205 197 194 191 186 184 185 188 191 189 184 181 179 177 176 180 182 182 185 187 185 186 188 186 184 184 187 194 199 202 204 208 216 225 230 232 235 235 230 233 236 234 236 243 229 221 226 223 228 250 264 267 264 261 256 254 255
284 260 240 222 209 206 203 196 189 184 180 181 184 187 190 191 192 196 196 189 183 182 183 184 186 186 186 187 186 184 183 183 186 193 197 199 201 207 216 224 225 224 225 224 221 225 232 235 236 239 232 222 227 227 228 244 262 270 268 268 266 262 260
346 325 257 227 212 206 204 200 190 182 179 182 185 187 189 190 193 199 203 200 195 191 188 187 186 186 186 186 185 183 182 182 187 193 194 196 203 212 217 219 221 222 220 219 221 225 232 235 227 226 228 226 232 237 235 244 262 270 267 266 266 266 266
10 6 346 242 208 198 201 201 194 185 185 188 188 188 189 192 195 198 204 206 203 197 192 188 184 182 183 184 185 184 181 184 189 194 195 200 212 223 225 221 226 228 222 227 232 229 232 235 226 221 228 232 236 243 245 246 255 265 270 271 269 268 270
22 18 12 350 218 201 201 202 198 193 192 194 194 193 193 196 199 200 203 206 203 197 192 188 183 183 185 185 185 183 182 185 189 193 201 209 218 227 229 227 233 231 223 230 236 231 231 234 230 229 239 252 252 241 240 249 257 264 270 274 272 268 269
24 22 19 5 317 226 212 210 207 203 199 196 197 198 199 202 204 205 206 204 197 193 193 190 186 188 190 187 185 182 183 189 195 201 211 218 219 223 226 233 241 238 226 225 229 230 230 227 233 245 245 243 255 237 227 245 267 274 268 259 263 278 281
25 24 25 18 356 305 243 226 217 210 205 202 201 202 204 207 209 210 210 205 195 193 195 192 187 187 186 182 181 182 187 199 210 216 221 223 221 221 228 237 244 239 228 226 226 229 231 227 234 249 246 220 226 250 259 257 269 279 274 256 319 309 301
23 24 24 21 11 352 287 246 230 215 207 207 210 209 208 210 215 218 214 206 200 200 198 192 185 180 175 170 173 184 200 211 219 222 224 225 228 235 241 242 239 230 221 222 226 226 225 227 226 223 219 222 215 220 257 265 249 260 281 337 346 329 314
10 15 18 18 16 12 349 276 249 231 217 212 216 217 215 214 218 223 221 213 209 204 198 192 186 177 167 166 176 188 203 216 225 229 228 225 230 243 246 234 227 227 221 214 219 220 213 219 228 209 201 232 225 204 227 253 237 227 278 345 355 -0 18
353 357 2 7 14 17 10 343 293 251 234 225 220 219 219 218 217 219 224 222 218 210 201 192 187 187 185 186 195 200 207 217 224 227 230 232 232 240 247 237 220 222 229 215 208 213 199 194 212 212 206 236 242 211 221 254 220 197 232 316 21 32 35
334 335 340 345 358 12 11 -0 343 307 257 237 229 221 218 218 213 208 208 204 200 205 204 192 189 200 202 197 202 208 212 218 220 220 228 236 232 223 230 239 229 216 225 214 198 206 205 193 208 223 218 232 237 211 209 239 186 183 207 175 108 107 83
314 319 323 327 333 349 4 4 355 337 304 259 239 228 220 217 209 199 194 185 179 188 195 192 195 200 195 192 203 210 214 218 218 215 221 232 234 228 226 231 230 221 221 215 198 195 193 187 197 212 214 228 229 194 173 195 186 176 175 142 117 121 127
285 300 307 313 318 319 323 339 350 346 328 303 266 234 219 212 198 189 194 197 192 190 191 190 192 194 192 195 202 208 218 225 217 212 214 216 228 242 244 240 241 243 244 242 225 200 188 189 198 202 193 197 210 188 174 179 181 165 150 139 131 121 107
261 276 286 295 305 309 299 306 332 344 337 324 306 268 227 211 195 186 194 205 207 205 202 196 192 196 203 207 208 212 221 222 210 214 223 220 223 237 243 238 240 246 246 246 244 224 201 201 212 209 189 177 177 172 164 161 159 152 143 137 131 109 88
267 261 264 274 288 303 303 301 312 324 328 325 314 300 261 221 206 190 192 208 216 216 214 209 207 214 218 216 215 220 221 211 207 222 241 242 236 237 235 229 233 239 239 240 243 236 216 199 194 188 178 167 159 154 150 146 147 148 141 134 125 100 84